Location: Seattle
(47.6064°N, 122.3308°W)
Time: 20:10:20
(UTC-07:00)

FO-29 - Visible Passes

Search period start: 28 March 2023 00:00
Search period end: 07 April 2023 00:00
Orbit: 801 x 1320 km, 98.5° (Epoch: 28 March)

Date Brightness Start Highest point End Pass type
(mag) Time Alt. Az. Time Alt. Az. Time Alt. Az.
28 Mar 12.6 04:18:38 10° NE 04:22:15 14° E 04:25:43 10° ESE visible
28 Mar 10.5 06:01:06 10° NNE 06:08:51 67° E 06:15:52 10° S visible
29 Mar 11.8 05:06:40 10° NNE 05:13:16 31° E 05:19:20 10° SSE visible
30 Mar 12.6 04:14:08 10° NE 04:17:05 13° ENE 04:19:56 10° ESE visible
30 Mar 10.6 05:56:10 10° NNE 06:03:48 63° E 06:10:40 10° S visible
31 Mar 11.9 05:01:48 10° NNE 05:08:10 28° E 05:14:00 10° SE visible
01 Apr 12.7 04:09:50 10° ENE 04:11:55 11° ENE 04:13:57 10° E visible
01 Apr 10.6 05:51:13 10° NNE 05:58:44 59° E 06:05:27 10° S visible
02 Apr 12.0 04:56:57 10° NNE 05:03:02 26° E 05:08:37 10° SE visible
03 Apr 10.7 05:46:17 10° NNE 05:53:40 55° E 06:00:13 10° S visible
04 Apr 12.1 04:52:07 10° NE 04:57:54 24° E 05:03:13 10° SE visible
05 Apr 10.8 05:41:21 10° NNE 05:48:34 52° E 05:54:58 10° S visible
06 Apr 12.1 04:47:17 10° NE 04:52:46 22° E 04:57:46 10° SE visible
